"read_dt","SO2 (ppb)","flags","PMT voltage (V)","lamp voltage (V)","lamp intensity (Hz)","internal temp (C)","react chamber temp (C)","sample flow (l/min)","pres (mmHg)","SO2 bkg (ppb)","SO2 coefficient"
2014-05-12 00:00:00,2905E-2,5C000410,-0724,1064,9930,025.9,045.2,0.161,754.3,01.17,0.508
2014-05-12 00:01:00,2892E-2,5C000410,-0724,1064,9982,025.9,045.3,0.161,754.2,01.17,0.508
2014-05-12 00:02:00,2867E-2,5C000410,-0724,1064,9919,025.9,045.2,0.161,754.2,01.17,0.508
2014-05-12 00:03:00,2912E-2,5C000410,-0724,1063,9870,025.8,045.2,0.161,754.2,01.17,0.508
2014-05-12 00:04:00,2873E-2,5C000410,-0724,1063,9855,025.9,045.3,0.161,754.3,01.17,0.508
2014-05-12 00:05:00,2877E-2,5C000410,-0724,1064,9958,025.9,045.3,0.161,754.3,01.17,0.508
2014-05-12 00:06:00,2884E-2,5C000410,-0724,1063,9904,025.9,045.3,0.161,754.2,01.17,0.508
2014-05-12 00:07:00,2873E-2,5C000410,-0724,1063,9948,025.8,045.3,0.161,754.3,01.17,0.508
2014-05-12 00:08:00,2920E-2,5C000410,-0724,1062,9968,025.9,045.2,0.161,754.3,01.17,0.508
2014-05-12 00:09:00,2898E-2,5C000410,-0724,1062,9927,025.9,045.2,0.161,754.3,01.17,0.508
2014-05-12 00:10:00,2873E-2,5C000410,-0724,1064,10118,025.9,045.2,0.161,754.3,01.17,0.508
2014-05-12 00:11:00,2838E-2,5C000410,-0724,1064,9774,025.9,045.2,0.161,754.3,01.17,0.508
2014-05-12 00:12:00,2848E-2,5C000410,-0724,1061,9680,025.9,045.2,0.161,754.3,01.17,0.508
2014-05-12 00:13:00,2872E-2,5C000410,-0724,1063,9888,025.9,045.3,0.161,754.3,01.17,0.508
2014-05-12 00:14:00,2865E-2,5C000410,-0724,1061,9925,025.9,045.2,0.161,754.3,01.17,0.508
2014-05-12 00:15:00,2892E-2,5C000410,-0724,1061,9875,025.9,045.2,0.161,754.3,01.17,0.508
2014-05-12 00:16:00,2863E-2,5C000410,-0724,1060,9789,025.9,045.2,0.161,754.3,01.17,0.508
2014-05-12 00:17:00,2872E-2,5C000410,-0724,1061,9931,025.9,045.2,0.161,754.3,01.17,0.508
2014-05-12 00:18:00,2873E-2,5C000410,-0724,1062,9950,025.9,045.2,0.161,754.3,01.17,0.508
2014-05-12 00:19:00,2883E-2,5C000410,-0724,1061,9899,025.9,045.2,0.161,754.3,01.17,0.508
2014-05-12 00:20:00,2913E-2,5C000410,-0724,1062,9871,025.9,045.3,0.161,754.3,01.17,0.508
2014-05-12 00:21:00,2883E-2,5C000410,-0724,1061,9938,025.9,045.3,0.161,754.3,01.17,0.508
2014-05-12 00:22:00,2880E-2,5C000410,-0724,1063,9884,025.9,045.3,0.161,754.3,01.17,0.508
2014-05-12 00:23:00,2886E-2,5C000410,-0724,1062,9906,025.9,045.3,0.161,754.3,01.17,0.508
2014-05-12 00:24:00,2891E-2,5C000410,-0724,1063,10079,025.9,045.3,0.161,754.3,01.17,0.508
2014-05-12 00:25:00,2856E-2,5C000410,-0724,1062,10025,025.9,045.3,0.161,754.3,01.17,0.508
2014-05-12 00:26:00,2825E-2,5C000410,-0724,1061,9800,025.9,045.3,0.161,754.3,01.17,0.508
2014-05-12 00:27:00,2859E-2,5C000410,-0724,1060,10052,025.9,045.3,0.161,754.3,01.17,0.508
2014-05-12 00:28:00,2828E-2,5C000400,-0724,1060,9867,025.9,045.3,0.161,754.2,01.17,0.508
2014-05-12 00:29:00,2833E-2,5C000410,-0724,1060,9857,026.0,045.2,0.161,754.3,01.17,0.508
2014-05-12 00:30:00,2828E-2,5C000410,-0724,1061,9948,025.9,045.3,0.161,754.3,01.17,0.508
2014-05-12 00:31:00,2846E-2,5C000410,-0724,1061,9957,026.0,045.2,0.161,754.3,01.17,0.508
2014-05-12 00:32:00,2853E-2,5C000410,-0724,1062,9839,026.0,045.2,0.161,754.3,01.17,0.508
2014-05-12 00:33:00,2877E-2,5C000400,-0724,1060,10013,026.0,045.2,0.161,754.3,01.17,0.508
2014-05-12 00:34:00,2828E-2,5C000410,-0724,1060,9974,026.0,045.2,0.161,754.3,01.17,0.508
2014-05-12 00:35:00,2817E-2,5C000410,-0724,1062,9836,026.0,045.3,0.161,754.3,01.17,0.508
2014-05-12 00:36:00,2819E-2,5C000400,-0724,1062,10006,026.0,045.3,0.161,754.3,01.17,0.508
2014-05-12 00:37:00,2843E-2,5C000410,-0724,1062,9868,026.0,045.3,0.161,754.2,01.17,0.508
2014-05-12 00:38:00,2831E-2,5C000410,-0724,1060,9898,026.0,045.3,0.161,754.3,01.17,0.508
2014-05-12 00:39:00,2834E-2,5C000400,-0724,1059,10063,026.0,045.3,0.161,754.2,01.17,0.508
2014-05-12 00:40:00,2834E-2,5C000400,-0724,1059,10025,026.0,045.3,0.161,754.3,01.17,0.508
2014-05-12 00:41:00,2873E-2,5C000410,-0724,1058,9901,026.0,045.3,0.161,754.2,01.17,0.508
2014-05-12 00:42:00,2836E-2,5C000410,-0724,1057,9995,026.0,045.2,0.161,754.2,01.17,0.508
2014-05-12 00:43:00,2828E-2,5C000410,-0724,1058,10057,026.0,045.2,0.160,754.3,01.17,0.508
2014-05-12 00:44:00,2825E-2,5C000410,-0724,1057,10010,026.0,045.2,0.161,754.3,01.17,0.508
2014-05-12 00:45:00,2809E-2,5C000400,-0724,1057,10051,026.0,045.2,0.160,754.3,01.17,0.508
2014-05-12 00:46:00,2833E-2,5C000410,-0724,1056,9973,026.0,045.3,0.160,754.3,01.17,0.508
2014-05-12 00:47:00,2816E-2,5C000410,-0724,1058,9814,026.0,045.2,0.160,754.2,01.17,0.508
2014-05-12 00:48:00,2836E-2,5C000400,-0724,1057,9807,026.0,045.2,0.160,754.3,01.17,0.508
2014-05-12 00:49:00,2834E-2,5C000400,-0724,1056,9992,026.0,045.3,0.161,754.3,01.17,0.508
2014-05-12 00:50:00,2838E-2,5C000410,-0724,1057,9882,026.0,045.2,0.161,754.3,01.17,0.508
2014-05-12 00:51:00,2831E-2,5C000410,-0724,1056,10047,026.0,045.3,0.160,754.2,01.17,0.508
2014-05-12 00:52:00,2819E-2,5C000410,-0724,1057,9891,026.0,045.2,0.160,754.3,01.17,0.508
2014-05-12 00:53:00,2829E-2,5C000410,-0724,1057,9913,026.0,045.2,0.160,754.3,01.17,0.508
2014-05-12 00:54:00,2804E-2,5C000400,-0724,1057,10023,026.0,045.2,0.160,754.3,01.17,0.508
2014-05-12 00:55:00,2822E-2,5C000410,-0724,1057,9973,026.0,045.2,0.160,754.2,01.17,0.508
2014-05-12 00:56:00,2829E-2,5C000410,-0724,1057,9986,026.0,045.2,0.160,754.2,01.17,0.508
2014-05-12 00:57:00,2834E-2,5C000410,-0724,1059,9984,026.1,045.2,0.160,754.2,01.17,0.508
2014-05-12 00:58:00,2836E-2,5C000410,-0724,1058,9892,026.1,045.3,0.160,754.2,01.17,0.508
2014-05-12 00:59:00,2846E-2,5C000410,-0724,1057,10059,026.1,045.3,0.160,754.2,01.17,0.508
2014-05-12 01:00:00,2819E-2,5C000400,-0724,1059,10041,026.1,045.3,0.160,754.2,01.17,0.508
2014-05-12 01:01:00,2835E-2,5C000400,-0724,1058,9966,026.1,045.3,0.160,754.2,01.17,0.508
2014-05-12 01:02:00,2847E-2,5C000410,-0724,1059,9937,026.1,045.3,0.160,754.2,01.17,0.508
2014-05-12 01:03:00,2860E-2,5C000410,-0724,1058,9851,026.1,045.2,0.160,754.2,01.17,0.508
2014-05-12 01:04:00,2860E-2,5C000410,-0724,1059,9974,026.1,045.3,0.160,754.2,01.17,0.508
2014-05-12 01:05:00,2846E-2,5C000400,-0724,1059,10009,026.1,045.3,0.160,754.2,01.17,0.508
2014-05-12 01:06:00,2811E-2,5C000410,-0724,1060,10104,026.1,045.2,0.160,754.2,01.17,0.508
2014-05-12 01:07:00,2849E-2,5C000410,-0724,1060,10084,026.1,045.3,0.160,754.2,01.17,0.508
2014-05-12 01:08:00,2832E-2,5C000410,-0724,1060,9973,026.1,045.2,0.160,754.1,01.17,0.508
2014-05-12 01:09:00,2864E-2,5C000410,-0724,1059,9986,026.1,045.2,0.160,754.1,01.17,0.508
2014-05-12 01:10:00,2846E-2,5C000410,-0724,1059,9959,026.1,045.2,0.160,754.2,01.17,0.508
2014-05-12 01:11:00,2844E-2,5C000400,-0724,1060,10005,026.1,045.3,0.160,754.2,01.17,0.508
2014-05-12 01:12:00,2807E-2,5C000410,-0724,1059,9994,026.1,045.3,0.160,754.1,01.17,0.508
2014-05-12 01:13:00,2817E-2,5C000400,-0724,1058,10019,026.1,045.2,0.160,754.2,01.17,0.508
2014-05-12 01:14:00,2826E-2,5C000400,-0724,1058,10046,026.1,045.2,0.160,754.1,01.17,0.508
2014-05-12 01:15:00,2817E-2,5C000410,-0724,1056,9858,026.1,045.2,0.160,754.2,01.17,0.508
2014-05-12 01:16:00,2849E-2,5C000410,-0724,1056,9921,026.1,045.3,0.160,754.2,01.17,0.508
2014-05-12 01:17:00,2830E-2,5C000400,-0724,1057,10066,026.1,045.3,0.160,754.2,01.17,0.508
2014-05-12 01:18:00,2803E-2,5C000400,-0724,1056,9786,026.1,045.3,0.160,754.2,01.17,0.508
2014-05-12 01:19:00,2827E-2,5C000410,-0724,1056,9998,026.2,045.3,0.160,754.2,01.17,0.508
2014-05-12 01:20:00,2779E-2,5C000410,-0724,1057,9907,026.1,045.2,0.160,754.2,01.17,0.508
2014-05-12 01:21:00,2783E-2,5C000410,-0724,1057,9985,026.2,045.3,0.160,754.2,01.17,0.508
2014-05-12 01:22:00,2770E-2,5C000400,-0724,1057,10024,026.2,045.2,0.160,754.2,01.17,0.508
2014-05-12 01:23:00,2817E-2,5C000410,-0724,1057,10079,026.2,045.3,0.160,754.2,01.17,0.508
2014-05-12 01:24:00,2731E-2,5C000410,-0724,1058,9716,026.2,045.3,0.160,754.2,01.17,0.508
2014-05-12 01:25:00,2800E-2,5C000410,-0724,1058,10033,026.2,045.2,0.160,754.2,01.17,0.508
2014-05-12 01:26:00,2777E-2,5C000400,-0724,1058,9931,026.2,045.2,0.160,754.1,01.17,0.508
2014-05-12 01:27:00,2832E-2,5C000410,-0724,1057,9946,026.2,045.3,0.160,754.1,01.17,0.508
2014-05-12 01:28:00,2838E-2,5C000410,-0724,1058,9987,026.2,045.2,0.160,754.2,01.17,0.508
2014-05-12 01:29:00,2799E-2,5C000410,-0724,1059,9957,026.2,045.2,0.160,754.2,01.17,0.508
2014-05-12 01:30:00,2820E-2,5C000410,-0724,1056,10101,026.2,045.3,0.160,754.2,01.17,0.508
2014-05-12 01:31:00,2817E-2,5C000410,-0724,1055,9994,026.2,045.2,0.160,754.1,01.17,0.508
2014-05-12 01:32:00,2825E-2,5C000410,-0724,1056,9860,026.2,045.3,0.160,754.2,01.17,0.508
2014-05-12 01:33:00,2834E-2,5C000410,-0724,1056,9875,026.2,045.3,0.160,754.2,01.17,0.508
2014-05-12 01:34:00,2841E-2,5C000410,-0724,1055,9914,026.2,045.3,0.160,754.2,01.17,0.508
2014-05-12 01:35:00,2807E-2,5C000410,-0724,1056,9844,026.2,045.3,0.160,754.1,01.17,0.508
2014-05-12 01:36:00,2819E-2,5C000410,-0724,1057,9976,026.2,045.2,0.160,754.1,01.17,0.508
2014-05-12 01:37:00,2800E-2,5C000400,-0724,1057,10041,026.2,045.2,0.160,754.1,01.17,0.508
2014-05-12 01:38:00,2802E-2,5C000410,-0724,1058,9940,026.2,045.2,0.160,754.2,01.17,0.508
2014-05-12 01:39:00,2826E-2,5C000410,-0724,1060,10000,026.2,045.2,0.160,754.1,01.17,0.508
2014-05-12 01:40:00,2841E-2,5C000410,-0724,1059,9795,026.2,045.2,0.160,754.2,01.17,0.508
2014-05-12 01:41:00,2817E-2,5C000410,-0724,1060,9886,026.3,045.3,0.160,754.3,01.17,0.508
2014-05-12 01:42:00,2847E-2,5C000410,-0724,1059,9923,026.3,045.3,0.160,754.3,01.17,0.508
2014-05-12 01:43:00,2871E-2,5C000410,-0724,1060,9956,026.3,045.3,0.160,754.2,01.17,0.508
2014-05-12 01:44:00,2830E-2,5C000410,-0724,1061,9957,026.3,045.3,0.160,754.2,01.17,0.508
2014-05-12 01:45:00,2770E-2,5C000410,-0724,1061,9926,026.3,045.3,0.160,754.2,01.17,0.508
2014-05-12 01:46:00,2850E-2,5C000410,-0724,1062,9997,026.3,045.3,0.160,754.3,01.17,0.508
2014-05-12 01:47:00,2826E-2,5C000410,-0724,1061,9947,026.3,045.3,0.160,754.3,01.17,0.508
2014-05-12 01:48:00,2857E-2,5C000410,-0724,1061,10016,026.3,045.3,0.160,754.2,01.17,0.508
2014-05-12 01:49:00,2841E-2,5C000410,-0724,1062,9912,026.3,045.3,0.160,754.3,01.17,0.508
2014-05-12 01:50:00,2839E-2,5C000400,-0724,1061,9860,026.3,045.3,0.160,754.4,01.17,0.508
2014-05-12 01:51:00,2806E-2,5C000410,-0724,1062,9999,026.3,045.2,0.160,754.3,01.17,0.508
2014-05-12 01:52:00,2848E-2,5C000400,-0724,1063,10007,026.3,045.3,0.160,754.3,01.17,0.508
2014-05-12 01:53:00,2871E-2,5C000410,-0724,1063,9850,026.3,045.3,0.160,754.4,01.17,0.508
2014-05-12 01:54:00,2836E-2,5C000410,-0724,1063,9969,026.3,045.3,0.160,754.4,01.17,0.508
2014-05-12 01:55:00,2835E-2,5C000410,-0724,1062,9858,026.3,045.3,0.160,754.3,01.17,0.508
2014-05-12 01:56:00,2791E-2,5C000400,-0724,1063,9886,026.3,045.3,0.160,754.3,01.17,0.508
2014-05-12 01:57:00,2833E-2,5C000410,-0724,1063,10009,026.3,045.2,0.160,754.4,01.17,0.508
2014-05-12 01:58:00,2788E-2,5C000410,-0724,1064,9820,026.3,045.2,0.160,754.3,01.17,0.508
2014-05-12 01:59:00,2827E-2,5C000410,-0724,1064,9901,026.3,045.2,0.160,754.3,01.17,0.508
2014-05-12 02:00:00,2828E-2,5C000410,-0724,1065,9914,026.3,045.2,0.160,754.4,01.17,0.508
2014-05-12 02:01:00,2842E-2,5C000410,-0724,1064,10016,026.3,045.3,0.160,754.4,01.17,0.508
2014-05-12 02:02:00,2823E-2,5C000410,-0724,1064,9880,026.3,045.3,0.160,754.4,01.17,0.508
2014-05-12 02:03:00,2864E-2,5C000410,-0724,1064,9941,026.3,045.3,0.160,754.4,01.17,0.508
2014-05-12 02:04:00,2857E-2,5C000410,-0724,1064,10003,026.3,045.3,0.160,754.4,01.17,0.508
2014-05-12 02:05:00,2877E-2,5C000410,-0724,1066,9914,026.3,045.3,0.160,754.4,01.17,0.508
2014-05-12 02:06:00,2866E-2,5C000410,-0724,1067,9828,026.4,045.3,0.160,754.4,01.17,0.508
2014-05-12 02:07:00,2854E-2,5C000410,-0724,1067,9958,026.3,045.3,0.160,754.4,01.17,0.508
2014-05-12 02:08:00,2902E-2,5C000410,-0724,1067,9819,026.4,045.3,0.160,754.4,01.17,0.508
2014-05-12 02:09:00,2885E-2,5C000400,-0724,1067,9915,026.4,045.3,0.160,754.4,01.17,0.508
2014-05-12 02:10:00,2892E-2,5C000410,-0724,1067,9923,026.4,045.3,0.160,754.5,01.17,0.508
2014-05-12 02:11:00,2875E-2,5C000410,-0724,1068,9886,026.3,045.3,0.160,754.5,01.17,0.508
2014-05-12 02:12:00,2877E-2,5C000400,-0724,1067,10141,026.3,045.3,0.160,754.4,01.17,0.508
2014-05-12 02:13:00,2859E-2,5C000410,-0724,1068,9717,026.4,045.3,0.160,754.5,01.17,0.508
2014-05-12 02:14:00,2893E-2,5C000410,-0724,1068,9779,026.4,045.3,0.160,754.4,01.17,0.508
2014-05-12 02:15:00,2918E-2,5C000410,-0724,1066,9920,026.4,045.3,0.160,754.4,01.17,0.508
2014-05-12 02:16:00,2831E-2,5C000410,-0724,1068,9847,026.4,045.3,0.160,754.4,01.17,0.508
2014-05-12 02:17:00,2892E-2,5C000410,-0724,1066,9822,026.4,045.3,0.160,754.4,01.17,0.508
2014-05-12 02:18:00,2870E-2,5C000410,-0724,1067,9843,026.4,045.3,0.160,754.6,01.17,0.508
2014-05-12 02:19:00,2791E-2,5C000410,-0724,1067,9818,026.4,045.3,0.160,754.5,01.17,0.508
2014-05-12 02:20:00,2824E-2,5C000410,-0724,1068,9860,026.4,045.3,0.159,754.5,01.17,0.508
2014-05-12 02:21:00,2866E-2,5C000410,-0724,1067,9868,026.4,045.2,0.159,754.5,01.17,0.508
2014-05-12 02:22:00,2872E-2,5C000410,-0724,1067,9679,026.4,045.2,0.159,754.5,01.17,0.508
2014-05-12 02:23:00,2898E-2,5C000410,-0724,1068,9910,026.4,045.2,0.159,754.6,01.17,0.508
2014-05-12 02:24:00,2863E-2,5C000410,-0724,1068,9739,026.4,045.3,0.159,754.6,01.17,0.508
2014-05-12 02:25:00,2859E-2,5C000410,-0724,1070,9962,026.4,045.3,0.159,754.6,01.17,0.508
2014-05-12 02:26:00,2868E-2,5C000410,-0724,1069,9840,026.4,045.3,0.159,754.6,01.17,0.508
2014-05-12 02:27:00,2868E-2,5C000410,-0724,1069,9833,026.4,045.3,0.159,754.6,01.17,0.508
2014-05-12 02:28:00,2885E-2,5C000410,-0724,1069,9650,026.4,045.3,0.159,754.7,01.17,0.508
2014-05-12 02:29:00,2873E-2,5C000410,-0724,1069,9832,026.4,045.3,0.159,754.7,01.17,0.508
2014-05-12 02:30:00,2869E-2,5C000410,-0724,1070,9765,026.5,045.3,0.159,754.5,01.17,0.508
2014-05-12 02:31:00,2882E-2,5C000410,-0724,1070,9866,026.5,045.3,0.159,754.6,01.17,0.508
2014-05-12 02:32:00,2934E-2,5C000410,-0724,1070,9839,026.5,045.3,0.159,754.6,01.17,0.508
2014-05-12 02:33:00,2904E-2,5C000410,-0724,1069,9818,026.5,045.3,0.159,754.6,01.17,0.508
2014-05-12 02:34:00,2881E-2,5C000410,-0724,1070,9762,026.5,045.3,0.159,754.6,01.17,0.508
2014-05-12 02:35:00,2837E-2,5C000410,-0724,1069,9879,026.5,045.3,0.159,754.6,01.17,0.508
2014-05-12 02:36:00,2834E-2,5C000410,-0724,1070,9813,026.5,045.3,0.159,754.6,01.17,0.508
2014-05-12 02:37:00,2879E-2,5C000410,-0724,1073,9705,026.5,045.3,0.159,754.6,01.17,0.508
2014-05-12 02:38:00,2872E-2,5C000410,-0724,1071,9951,026.5,045.3,0.159,754.6,01.17,0.508
2014-05-12 02:39:00,2849E-2,5C000410,-0724,1071,9816,026.5,045.3,0.159,754.6,01.17,0.508
2014-05-12 02:40:00,2889E-2,5C000410,-0724,1072,9808,026.5,045.3,0.159,754.6,01.17,0.508
2014-05-12 02:41:00,2886E-2,5C000410,-0724,1072,9793,026.5,045.3,0.159,754.6,01.17,0.508
2014-05-12 02:42:00,2877E-2,5C000410,-0724,1073,9725,026.5,045.3,0.159,754.6,01.17,0.508
2014-05-12 02:43:00,2832E-2,5C000410,-0724,1073,9857,026.5,045.3,0.159,754.6,01.17,0.508
2014-05-12 02:44:00,2838E-2,5C000410,-0724,1074,9667,026.5,045.2,0.159,754.6,01.17,0.508
2014-05-12 02:45:00,2849E-2,5C000410,-0724,1072,9795,026.5,045.3,0.159,754.6,01.17,0.508
2014-05-12 02:46:00,2839E-2,5C000410,-0724,1073,9764,026.5,045.3,0.159,754.6,01.17,0.508
2014-05-12 02:47:00,2849E-2,5C000410,-0724,1073,9670,026.5,045.3,0.159,754.6,01.17,0.508
2014-05-12 02:48:00,2817E-2,5C000410,-0724,1072,9861,026.5,045.3,0.159,754.6,01.17,0.508
2014-05-12 02:49:00,2853E-2,5C000410,-0724,1073,9728,026.5,045.3,0.159,754.7,01.17,0.508
2014-05-12 02:50:00,2839E-2,5C000410,-0724,1073,9784,026.5,045.3,0.159,754.7,01.17,0.508
2014-05-12 02:51:00,2894E-2,5C000410,-0724,1073,9744,026.5,045.3,0.159,754.7,01.17,0.508
2014-05-12 02:52:00,2837E-2,5C000410,-0724,1073,9875,026.5,045.2,0.159,754.6,01.17,0.508
2014-05-12 02:53:00,2806E-2,5C000410,-0724,1073,9662,026.6,045.3,0.159,754.7,01.17,0.508
2014-05-12 02:54:00,2829E-2,5C000410,-0724,1072,9667,026.6,045.2,0.159,754.7,01.17,0.508
2014-05-12 02:55:00,2834E-2,5C000410,-0724,1073,9817,026.6,045.3,0.159,754.7,01.17,0.508
2014-05-12 02:56:00,2888E-2,5C000410,-0724,1073,9833,026.6,045.3,0.159,754.8,01.17,0.508
2014-05-12 02:57:00,2866E-2,5C000410,-0724,1073,9764,026.6,045.3,0.159,754.7,01.17,0.508
2014-05-12 02:58:00,2870E-2,5C000410,-0724,1072,9881,026.6,045.3,0.159,754.7,01.17,0.508
2014-05-12 02:59:00,2854E-2,5C000410,-0724,1073,9918,026.6,045.3,0.159,754.7,01.17,0.508
2014-05-12 03:00:00,2848E-2,5C000410,-0724,1073,9751,026.6,045.3,0.159,754.7,01.17,0.508
2014-05-12 03:01:00,2861E-2,5C000410,-0724,1075,9869,026.6,045.3,0.159,754.7,01.17,0.508
2014-05-12 03:02:00,2882E-2,5C000410,-0724,1075,9639,026.6,045.3,0.159,754.7,01.17,0.508
2014-05-12 03:03:00,2884E-2,5C000410,-0724,1075,9720,026.6,045.3,0.159,754.7,01.17,0.508
2014-05-12 03:04:00,2908E-2,5C000410,-0724,1074,9763,026.6,045.3,0.159,754.8,01.17,0.508
2014-05-12 03:05:00,2859E-2,5C000410,-0724,1074,9732,026.6,045.3,0.159,754.8,01.17,0.508
2014-05-12 03:06:00,2900E-2,5C000410,-0724,1076,9734,026.6,045.3,0.159,754.7,01.17,0.508
2014-05-12 03:07:00,2835E-2,5C000410,-0724,1075,9929,026.6,045.3,0.159,754.7,01.17,0.508
2014-05-12 03:08:00,2835E-2,5C000410,-0724,1076,9766,026.6,045.3,0.159,754.8,01.17,0.508
2014-05-12 03:09:00,2861E-2,5C000410,-0724,1076,9830,026.7,045.3,0.159,754.8,01.17,0.508
2014-05-12 03:10:00,2847E-2,5C000410,-0724,1075,9820,026.6,045.3,0.159,754.7,01.17,0.508
2014-05-12 03:11:00,2879E-2,5C000410,-0724,1075,9837,026.6,045.3,0.159,754.7,01.17,0.508
2014-05-12 03:12:00,2877E-2,5C000410,-0724,1076,9698,026.6,045.3,0.159,754.8,01.17,0.508
2014-05-12 03:13:00,2868E-2,5C000410,-0724,1075,9811,026.6,045.3,0.159,754.8,01.17,0.508
2014-05-12 03:14:00,2851E-2,5C000410,-0724,1075,9861,026.6,045.3,0.159,754.7,01.17,0.508
2014-05-12 03:15:00,2868E-2,5C000410,-0724,1076,9845,026.7,045.3,0.159,754.8,01.17,0.508
2014-05-12 03:16:00,2862E-2,5C000410,-0724,1076,9829,026.6,045.2,0.159,754.7,01.17,0.508
2014-05-12 03:17:00,2869E-2,5C000410,-0724,1077,9902,026.7,045.3,0.159,754.7,01.17,0.508
2014-05-12 03:18:00,2918E-2,5C000410,-0724,1076,9813,026.7,045.3,0.159,754.7,01.17,0.508
2014-05-12 03:19:00,2866E-2,5C000410,-0724,1076,9689,026.7,045.3,0.159,754.8,01.17,0.508
2014-05-12 03:20:00,2906E-2,5C000410,-0724,1076,9602,026.7,045.3,0.159,754.8,01.17,0.508
2014-05-12 03:21:00,2879E-2,5C000410,-0724,1078,9751,026.7,045.3,0.159,754.7,01.17,0.508
2014-05-12 03:22:00,2883E-2,5C000410,-0724,1078,9710,026.7,045.3,0.159,754.8,01.17,0.508
2014-05-12 03:23:00,2915E-2,5C000410,-0724,1078,9666,026.7,045.3,0.159,754.8,01.17,0.508
2014-05-12 03:24:00,2870E-2,5C000410,-0724,1079,9791,026.7,045.3,0.159,754.8,01.17,0.508
2014-05-12 03:25:00,2903E-2,5C000410,-0724,1079,9796,026.7,045.3,0.159,754.8,01.17,0.508
2014-05-12 03:26:00,2885E-2,5C000410,-0724,1079,9697,026.7,045.3,0.159,754.8,01.17,0.508
2014-05-12 03:27:00,2894E-2,5C000410,-0724,1080,9566,026.7,045.3,0.159,754.8,01.17,0.508
2014-05-12 03:28:00,2837E-2,5C000410,-0724,1080,9701,026.7,045.3,0.159,754.7,01.17,0.508
2014-05-12 03:29:00,2897E-2,5C000410,-0724,1080,9617,026.7,045.3,0.159,754.9,01.17,0.508
2014-05-12 03:30:00,2927E-2,5C000410,-0724,1079,9829,026.7,045.3,0.159,754.9,01.17,0.508
2014-05-12 03:31:00,2889E-2,5C000410,-0724,1079,9681,026.7,045.3,0.159,754.8,01.17,0.508
2014-05-12 03:32:00,2901E-2,5C000410,-0724,1078,9739,026.7,045.3,0.159,754.8,01.17,0.508
2014-05-12 03:33:00,2894E-2,5C000410,-0724,1077,9677,026.7,045.2,0.159,754.9,01.17,0.508
2014-05-12 03:34:00,2904E-2,5C000410,-0724,1077,9785,026.7,045.3,0.159,754.9,01.17,0.508
2014-05-12 03:35:00,2895E-2,5C000410,-0724,1077,9771,026.8,045.3,0.159,754.8,01.17,0.508
2014-05-12 03:36:00,2902E-2,5C000410,-0724,1078,9588,026.8,045.3,0.159,754.9,01.17,0.508
2014-05-12 03:37:00,2892E-2,5C000410,-0724,1078,9828,026.7,045.3,0.159,754.9,01.17,0.508
2014-05-12 03:38:00,2869E-2,5C000410,-0724,1079,9727,026.7,045.3,0.159,754.9,01.17,0.508
2014-05-12 03:39:00,2891E-2,5C000410,-0724,1080,9660,026.8,045.3,0.158,754.9,01.17,0.508
2014-05-12 03:40:00,2920E-2,5C000410,-0724,1080,9670,026.8,045.3,0.159,754.9,01.17,0.508
2014-05-12 03:41:00,2888E-2,5C000410,-0724,1080,9690,026.8,045.3,0.158,754.9,01.17,0.508
2014-05-12 03:42:00,2878E-2,5C000410,-0724,1082,9571,026.8,045.3,0.158,754.9,01.17,0.508
2014-05-12 03:43:00,2868E-2,5C000410,-0724,1082,9735,026.8,045.3,0.158,754.9,01.17,0.508
2014-05-12 03:44:00,2879E-2,5C000410,-0724,1081,9761,026.8,045.3,0.158,754.8,01.17,0.508
2014-05-12 03:45:00,2938E-2,5C000410,-0724,1082,9780,026.8,045.3,0.158,754.9,01.17,0.508
2014-05-12 03:46:00,2849E-2,5C000410,-0724,1082,9747,026.8,045.3,0.158,754.9,01.17,0.508
2014-05-12 03:47:00,2884E-2,5C000410,-0724,1083,9544,026.8,045.3,0.158,754.9,01.17,0.508
2014-05-12 03:48:00,2893E-2,5C000410,-0724,1083,9875,026.8,045.3,0.158,754.9,01.17,0.508
2014-05-12 03:49:00,2876E-2,5C000410,-0724,1083,9673,026.8,045.3,0.158,755.0,01.17,0.508
2014-05-12 03:50:00,2883E-2,5C000410,-0724,1084,9611,026.8,045.3,0.158,755.0,01.17,0.508
2014-05-12 03:51:00,2892E-2,5C000410,-0724,1083,9841,026.8,045.3,0.158,755.0,01.17,0.508
2014-05-12 03:52:00,2897E-2,5C000410,-0724,1083,9793,026.9,045.3,0.158,755.0,01.17,0.508
2014-05-12 03:53:00,2907E-2,5C000410,-0724,1083,9676,026.9,045.3,0.158,755.1,01.16,0.508
2014-05-12 03:54:00,2868E-2,5C000410,-0724,1085,9672,026.9,045.3,0.158,755.0,01.17,0.508
2014-05-12 03:55:00,2853E-2,5C000410,-0724,1085,9772,026.8,045.3,0.158,755.0,01.17,0.508
2014-05-12 03:56:00,2861E-2,5C000410,-0724,1085,9760,026.8,045.3,0.158,755.1,01.16,0.508
2014-05-12 03:57:00,2879E-2,5C000410,-0724,1086,9700,026.9,045.3,0.158,755.0,01.17,0.508
2014-05-12 03:58:00,2868E-2,5C000410,-0724,1085,9520,026.8,045.3,0.158,755.0,01.17,0.508
2014-05-12 03:59:00,2861E-2,5C000410,-0724,1084,9601,026.9,045.3,0.158,755.0,01.17,0.508
2014-05-12 04:00:00,2883E-2,5C000410,-0724,1086,9579,026.9,045.3,0.158,755.0,01.17,0.508
2014-05-12 04:01:00,2897E-2,5C000410,-0724,1086,9593,026.9,045.3,0.158,755.0,01.17,0.508
2014-05-12 04:02:00,2853E-2,5C000410,-0724,1088,9579,026.9,045.3,0.158,755.0,01.17,0.508
2014-05-12 04:03:00,2881E-2,5C000410,-0724,1088,9807,026.9,045.3,0.158,755.1,01.16,0.508
2014-05-12 04:04:00,2892E-2,5C000410,-0724,1088,9698,026.9,045.3,0.158,755.1,01.16,0.508
2014-05-12 04:05:00,2864E-2,5C000410,-0724,1087,9597,026.9,045.3,0.158,755.1,01.16,0.508
2014-05-12 04:06:00,2901E-2,5C000410,-0724,1086,9627,026.9,045.3,0.158,755.1,01.16,0.508
2014-05-12 04:07:00,2912E-2,5C000410,-0724,1088,9601,026.9,045.3,0.158,755.1,01.16,0.508
2014-05-12 04:08:00,2912E-2,5C000410,-0724,1089,9793,026.9,045.3,0.158,755.1,01.16,0.508
2014-05-12 04:09:00,2931E-2,5C000410,-0724,1088,9707,026.9,045.3,0.158,755.1,01.16,0.508
2014-05-12 04:10:00,2862E-2,5C000410,-0724,1088,9646,026.9,045.3,0.158,755.1,01.16,0.508
2014-05-12 04:11:00,2903E-2,5C000410,-0724,1087,9576,026.9,045.3,0.158,755.2,01.16,0.508
2014-05-12 04:12:00,2899E-2,5C000410,-0724,1087,9714,026.9,045.3,0.158,755.2,01.16,0.508
2014-05-12 04:13:00,2891E-2,5C000410,-0724,1088,9755,026.9,045.3,0.158,755.2,01.16,0.508
2014-05-12 04:14:00,2844E-2,5C000410,-0724,1087,9561,026.9,045.3,0.158,755.2,01.16,0.508
2014-05-12 04:15:00,2884E-2,5C000410,-0724,1087,9708,027.0,045.3,0.158,755.2,01.16,0.508
2014-05-12 04:16:00,2900E-2,5C000410,-0724,1089,9756,026.9,045.3,0.158,755.2,01.16,0.508
2014-05-12 04:17:00,2883E-2,5C000410,-0724,1087,9556,027.0,045.3,0.158,755.1,01.16,0.508
2014-05-12 04:18:00,2912E-2,5C000410,-0724,1089,9750,027.0,045.3,0.158,755.2,01.16,0.508
2014-05-12 04:19:00,2856E-2,5C000410,-0724,1088,9564,027.0,045.3,0.158,755.2,01.16,0.508
2014-05-12 04:20:00,2909E-2,5C000410,-0724,1088,9755,027.0,045.3,0.158,755.2,01.16,0.508
2014-05-12 04:21:00,2902E-2,5C000410,-0724,1089,9582,027.0,045.3,0.158,755.2,01.16,0.508
2014-05-12 04:22:00,2880E-2,5C000410,-0724,1090,9590,027.0,045.3,0.158,755.2,01.16,0.508
2014-05-12 04:23:00,2906E-2,5C000410,-0724,1092,9649,027.0,045.3,0.158,755.2,01.16,0.508